SHIJIAN-23 (SJ-23)

Last updated on Sun Jun 21 2026 00:03:09 GMT+0000 (Coordinated Universal Time)

1 55131U 23002A 26171.49181124 -.00000272 00000+0 00000+0 0 9999 2 55131 3.7270 78.2744 0003795 275.1369 238.2597 1.00087098 12546
UTC large
Height (km)
Speed (km/s)
/
Latitude / Longitude
Inclination (degrees)
Orbital Period (minutes)
Azimuth
Elevation
Range (km)
Doppler Factor

Next 0 passes for location: London (51.5072 / 0.1276)

No passes found over London.
SHIJIAN-23 (SJ-23)